Hourly Weather Roundup
Issued by NWS Central Illinois

Home | Current Version | Previous Version | Text Only | Print | Product List | Glossary On
Versions: 1 2 3 4 5 6 7 8 9 10 11 12 13 14 15 16 17 18 19 20 21 22 23 24 25 26 27 28 29 30 31 32 33 34 35 36 37 38 39 40 41 42 43 44 45 46 47 48 49 50
000
NZUS43 KILX 191010
HWRILX

Area Weather Roundup
National Weather Service Lincoln IL
500 AM CDT THU OCT 19 2017

NOTE:  "FAIR" indicates few or no clouds below 12,000 feet, with
       no sigificant weather and/or obstructions to visibility.


CITY           SKY/WX    TMP DP  RH WIND       PRES   REMARKS
Bloomington    CLEAR     52  47  83 SW8       30.11S
Champaign      CLEAR     51  46  83 S8        30.13R
Danville       CLEAR     52  46  82 SW8       30.11R
Decatur        CLEAR     53  47  79 SW10      30.13R
Effingham      CLEAR     52  48  87 SE3       30.17R
Flora          CLEAR     48  46  91 S6        30.18S
Galesburg      CLEAR     45  43  92 CALM      30.09R
Jacksonville   CLEAR     55  47  76 S8        30.10S
Lacon          CLEAR     53  48  84 S3        30.08R
Lawrenceville  CLEAR     48  45  89 S6        30.19R
Litchfield     CLEAR     48  46  91 S8        30.14R
$$


CITY           SKY/WX    TMP DP  RH WIND       PRES   REMARKS
Lincoln        CLEAR     53  49  85 SW5       30.10S
Macomb         CLEAR     50  45  82 SW5       30.10R
Mattoon        CLEAR     53  49  86 S9        30.13R
Mt Carmel AP   CLEAR     48  45  89 CALM      30.18S
Olney-Noble AP CLEAR     49  47  93 S5        30.18S
Paris AP       CLEAR     53  48  83 S7        30.15R
Peoria         CLEAR     51  47  86 SW5       30.09R
Pontiac        CLEAR     55  50  85 SW7       30.10R
Rantoul        CLEAR     52  48  87 SW5       30.12R
Robinson       CLEAR     46  44  95 S5        30.18S
Springfield    CLEAR     55  49  80 SW6       30.11S
Taylorville    CLEAR     50  47  89 S5        30.13R
$$

...REGIONAL REPORTS...


CITY           SKY/WX    TMP DP  RH WIND       PRES   REMARKS
Chicago O`Hare PTCLDY    54  46  74 W7        30.06R
Kankakee       CLEAR     51  46  81 SW3       30.09S
Moline         CLEAR     49  43  80 CALM      30.08R
Mount Sterling CLEAR     49  45  84 SW5       30.09R
Mount Vernon   CLEAR     46  46 100 CALM      30.18R FOG
Pittsfield     CLEAR     53  47  82 S5        30.11S
Quincy         CLEAR     51  45  79 S8        30.09R
Rockford       CLOUDY    50  44  80 CALM      30.10R
$$


CITY           SKY/WX    TMP DP  RH WIND       PRES   REMARKS
Burlington     CLEAR     52  47  83 W3        30.08R
Cedar Rapids   CLOUDY    49  42  77 NE5       30.08R
Des Moines     CLEAR     54  41  61 E10       30.08R
Kirksville     CLEAR     50  49  96 SW5       30.09R
Ottumwa        CLEAR     50  47  89 NW3       30.08R
St Louis       CLEAR     58  49  72 S3        30.14R
$$


CITY           SKY/WX    TMP DP  RH WIND       PRES   REMARKS
Terre Haute    CLEAR     51  45  79 S7        30.16S
Evansville     CLEAR     49  46  90 CALM      30.22R
Indianapolis   PTCLDY    49  44  83 S6        30.17S
Lafayette      CLEAR     52  47  83 SW5       30.12R
Madison        PTCLDY    45  40  82 CALM      30.06R
Milwaukee      CLOUDY    58  34  40 NW9       30.04R
$$






USA.gov is the U.S. government's official web portal to all federal, state and local government web resources and services.